| time (UTC) | temp F | wind direction | speed knots | gust knots | rain 1hr in | rain 24hr in | rain mn in | humidity % | barometer mb |
| 20260504045558 | 57 | 227 | 3.5 | 7.0 | 0.00 | 0.00 | 0.00 | 65 | 1005.4 |
| 20260504045058 | 57 | 213 | 3.5 | 7.0 | 0.00 | 0.00 | 0.00 | 65 | 1005.4 |
| 20260504044612 | 57 | 230 | 3.5 | 7.8 | 0.00 | 0.00 | 0.00 | 64 | 1005.4 |
| 20260504044100 | 57 | 224 | 3.5 | 7.8 | 0.00 | 0.00 | 0.00 | 64 | 1005.4 |
| 20260504043602 | 58 | 213 | 4.3 | 9.6 | 0.00 | 0.00 | 0.00 | 64 | 1005.3 |
| 20260504043110 | 58 | 236 | 3.5 | 9.6 | 0.00 | 0.00 | 0.00 | 64 | 1005.3 |
| 20260504042558 | 58 | 211 | 4.3 | 9.6 | 0.00 | 0.00 | 0.00 | 64 | 1005.4 |
| 20260504042057 | 58 | 204 | 4.3 | 9.6 | 0.00 | 0.00 | 0.00 | 64 | 1005.4 |
| 20260504041608 | 58 | 221 | 5.2 | 9.6 | 0.00 | 0.00 | 0.00 | 63 | 1005.4 |
| 20260504041102 | 58 | 212 | 5.2 | 8.7 | 0.00 | 0.00 | 0.00 | 63 | 1005.4 |
| 20260504040558 | 58 | 207 | 4.3 | 9.6 | 0.00 | 0.00 | 0.00 | 63 | 1005.3 |
| 20260504040116 | 58 | 227 | 4.3 | 9.6 | 0.00 | 0.00 | 0.00 | 63 | 1005.4 |
| 20260504035558 | 58 | 217 | 4.3 | 7.8 | 0.00 | 0.00 | 0.00 | 63 | 1005.4 |
| 20260504035059 | 58 | 212 | 3.5 | 7.0 | 0.00 | 0.00 | 0.00 | 62 | 1005.3 |
| 20260504034616 | 58 | 216 | 3.5 | 7.0 | 0.00 | 0.00 | 0.00 | 62 | 1005.4 |
| 20260504034058 | 58 | 204 | 4.3 | 7.0 | 0.00 | 0.00 | 0.00 | 62 | 1005.4 |
| 20260504033558 | 59 | 204 | 4.3 | 6.1 | 0.00 | 0.00 | 0.00 | 62 | 1005.5 |
| 20260504033105 | 59 | 204 | 3.5 | 5.2 | 0.00 | 0.00 | 0.00 | 61 | 1005.5 |
| 20260504032558 | 59 | 204 | 2.6 | 5.2 | 0.00 | 0.00 | 0.00 | 61 | 1005.6 |
| 20260504032058 | 59 | 215 | 2.6 | 6.1 | 0.00 | 0.00 | 0.00 | 61 | 1005.6 |
| 20260504031622 | 59 | 208 | 2.6 | 7.8 | 0.00 | 0.00 | 0.00 | 60 | 1005.6 |
| 20260504031057 | 59 | 211 | 3.5 | 7.8 | 0.00 | 0.00 | 0.00 | 60 | 1005.7 |
| 20260504030602 | 60 | 224 | 4.3 | 7.8 | 0.00 | 0.00 | 0.00 | 60 | 1005.7 |
| 20260504030116 | 60 | 219 | 3.5 | 8.7 | 0.00 | 0.00 | 0.00 | 60 | 1005.7 |
| 20260504025558 | 60 | 206 | 4.3 | 8.7 | 0.00 | 0.00 | 0.00 | 60 | 1005.7 |
| 20260504025059 | 60 | 210 | 3.5 | 7.8 | 0.00 | 0.00 | 0.00 | 59 | 1005.7 |
| 20260504024601 | 60 | 210 | 4.3 | 7.8 | 0.00 | 0.00 | 0.00 | 59 | 1005.7 |
| 20260504024058 | 60 | 206 | 3.5 | 7.0 | 0.00 | 0.00 | 0.00 | 59 | 1005.7 |
| 20260504023558 | 60 | 219 | 3.5 | 7.8 | 0.00 | 0.00 | 0.00 | 59 | 1005.8 |
| 20260504023058 | 60 | 211 | 4.3 | 7.8 | 0.00 | 0.00 | 0.00 | 58 | 1005.6 |
| 20260504022628 | 60 | 217 | 3.5 | 6.1 | 0.00 | 0.00 | 0.00 | 58 | 1005.7 |
| 20260504022057 | 61 | 211 | 2.6 | 5.2 | 0.00 | 0.00 | 0.00 | 57 | 1005.7 |
| 20260504021608 | 61 | 215 | 2.6 | 5.2 | 0.00 | 0.00 | 0.00 | 57 | 1005.7 |
| 20260504021057 | 61 | 209 | 2.6 | 5.2 | 0.00 | 0.00 | 0.00 | 57 | 1005.6 |
| 20260504020559 | 61 | 213 | 2.6 | 7.0 | 0.00 | 0.00 | 0.00 | 57 | 1005.6 |
| 20260504020057 | 61 | 215 | 2.6 | 7.0 | 0.00 | 0.00 | 0.00 | 57 | 1005.6 |
| 20260504015558 | 61 | 198 | 4.3 | 6.1 | 0.00 | 0.00 | 0.00 | 56 | 1005.5 |
| 20260504015059 | 61 | 211 | 2.6 | 5.2 | 0.00 | 0.00 | 0.00 | 56 | 1005.4 |
| 20260504014557 | 62 | 203 | 2.6 | 5.2 | 0.00 | 0.00 | 0.00 | 56 | 1005.5 |
| 20260504014101 | 62 | 212 | 2.6 | 4.3 | 0.00 | 0.00 | 0.00 | 55 | 1005.5 |
| 20260504013558 | 62 | 215 | 2.6 | 4.3 | 0.00 | 0.00 | 0.00 | 55 | 1005.6 |
| 20260504013058 | 63 | 220 | 2.6 | 4.3 | 0.00 | 0.00 | 0.00 | 54 | 1005.5 |
| 20260504012602 | 63 | 216 | 2.6 | 4.3 | 0.00 | 0.00 | 0.00 | 54 | 1005.5 |
| 20260504012101 | 63 | 219 | 2.6 | 4.3 | 0.00 | 0.00 | 0.00 | 53 | 1005.3 |
| 20260504011558 | 64 | 213 | 1.7 | 4.3 | 0.00 | 0.00 | 0.00 | 52 | 1005.3 |
| 20260504011058 | 64 | 214 | 1.7 | 4.3 | 0.00 | 0.00 | 0.00 | 52 | 1005.3 |
| 20260504010558 | 64 | 215 | 1.7 | 3.5 | 0.00 | 0.00 | 0.00 | 51 | 1005.2 |
| 20260504010059 | 65 | 214 | 1.7 | 3.5 | 0.00 | 0.00 | 0.00 | 51 | 1005.1 |
| 20260504005558 | 65 | 215 | 1.7 | 3.5 | 0.00 | 0.00 | 0.00 | 50 | 1005.1 |
| 20260504005058 | 65 | 219 | 1.7 | 3.5 | 0.00 | 0.00 | 0.00 | 49 | 1005.1 |
| 20260504004559 | 66 | 225 | 1.7 | 6.1 | 0.00 | 0.00 | 0.00 | 49 | 1005.1 |
| 20260504004058 | 66 | 215 | 1.7 | 7.0 | 0.00 | 0.00 | 0.00 | 49 | 1005.0 |
| 20260504003557 | 66 | 213 | 2.6 | 9.6 | 0.00 | 0.00 | 0.00 | 48 | 1005.1 |
| 20260504003059 | 67 | 227 | 2.6 | 9.6 | 0.00 | 0.00 | 0.00 | 47 | 1005.1 |
| 20260504002558 | 67 | 214 | 1.7 | 5.2 | 0.00 | 0.00 | 0.00 | 47 | 1005.1 |
| 20260504002058 | 67 | 240 | 1.7 | 7.0 | 0.00 | 0.00 | 0.00 | 46 | 1005.2 |
| 20260504001557 | 67 | 215 | 3.5 | 7.0 | 0.00 | 0.00 | 0.00 | 46 | 1005.2 |
| 20260504001058 | 68 | 229 | 2.6 | 8.7 | 0.00 | 0.00 | 0.00 | 46 | 1005.3 |
| 20260504000558 | 68 | 229 | 3.5 | 9.6 | 0.00 | 0.00 | 0.00 | 45 | 1005.2 |
| 20260504000138 | 68 | 225 | 3.5 | 9.6 | 0.00 | 0.00 | 0.00 | 45 | 1005.1 |
| 20260503235558 | 68 | 227 | 3.5 | 8.7 | 0.00 | 0.00 | 0.00 | 45 | 1005.1 |
| 20260503235058 | 68 | 198 | 3.5 | 8.7 | 0.00 | 0.00 | 0.00 | 45 | 1005.1 |
| 20260503234603 | 68 | 261 | 4.3 | 9.6 | 0.00 | 0.00 | 0.00 | 45 | 1005.1 |
| 20260503234058 | 68 | 249 | 3.5 | 10.4 | 0.00 | 0.00 | 0.00 | 45 | 1005.2 |
| 20260503233558 | 68 | 238 | 5.2 | 10.4 | 0.00 | 0.00 | 0.00 | 43 | 1005.1 |
| 20260503233101 | 68 | 260 | 5.2 | 13.0 | 0.00 | 0.00 | 0.00 | 44 | 1005.2 |
| 20260503232557 | 68 | 232 | 7.0 | 13.0 | 0.00 | 0.00 | 0.00 | 43 | 1005.2 |
| 20260503232057 | 68 | 257 | 6.1 | 15.6 | 0.00 | 0.00 | 0.00 | 43 | 1005.3 |
| 20260503231559 | 68 | 171 | 7.0 | 15.6 | 0.00 | 0.00 | 0.00 | 43 | 1005.3 |
| 20260503231058 | 69 | 244 | 7.0 | 14.8 | 0.00 | 0.00 | 0.00 | 44 | 1005.4 |
| 20260503230558 | 69 | 212 | 4.3 | 16.5 | 0.00 | 0.00 | 0.00 | 44 | 1005.4 |
| 20260503230059 | 69 | 250 | 7.8 | 16.5 | 0.00 | 0.00 | 0.00 | 43 | 1005.4 |
| 20260503225558 | 69 | 200 | 7.0 | 13.9 | 0.00 | 0.00 | 0.00 | 43 | 1005.5 |
| 20260503225058 | 69 | 214 | 7.0 | 13.9 | 0.00 | 0.00 | 0.00 | 43 | 1005.5 |
| 20260503224559 | 69 | 240 | 6.1 | 13.9 | 0.00 | 0.00 | 0.00 | 42 | 1005.6 |
| 20260503224058 | 69 | 240 | 5.2 | 13.9 | 0.00 | 0.00 | 0.00 | 43 | 1005.6 |
| 20260503223558 | 69 | 218 | 6.1 | 18.2 | 0.00 | 0.00 | 0.00 | 43 | 1005.6 |
| 20260503223059 | 69 | 242 | 8.7 | 18.2 | 0.00 | 0.00 | 0.00 | 41 | 1005.6 |
| 20260503222557 | 69 | 224 | 7.8 | 19.1 | 0.00 | 0.00 | 0.00 | 43 | 1005.5 |
| 20260503222057 | 69 | 223 | 8.7 | 19.1 | 0.00 | 0.00 | 0.00 | 43 | 1005.6 |
| 20260503221602 | 69 | 267 | 8.7 | 19.1 | 0.00 | 0.00 | 0.00 | 42 | 1005.5 |
| 20260503221101 | 69 | 204 | 7.8 | 20.9 | 0.00 | 0.00 | 0.00 | 43 | 1005.4 |
| 20260503220558 | 69 | 254 | 9.6 | 20.9 | 0.00 | 0.00 | 0.00 | 44 | 1005.3 |
| 20260503220059 | 69 | 223 | 8.7 | 18.2 | 0.00 | 0.00 | 0.00 | 43 | 1005.5 |
| 20260503215558 | 68 | 201 | 8.7 | 21.7 | 0.00 | 0.00 | 0.00 | 43 | 1005.5 |
| 20260503215057 | 68 | 234 | 9.6 | 21.7 | 0.00 | 0.00 | 0.00 | 45 | 1005.5 |
| 20260503214559 | 68 | 202 | 9.6 | 24.3 | 0.00 | 0.00 | 0.00 | 46 | 1005.6 |
| 20260503214058 | 68 | 214 | 12.2 | 24.3 | 0.00 | 0.00 | 0.00 | 43 | 1005.5 |
| 20260503213604 | 68 | 220 | 10.4 | 24.3 | 0.00 | 0.00 | 0.00 | 44 | 1005.5 |
| 20260503213059 | 67 | 224 | 10.4 | 25.2 | 0.00 | 0.00 | 0.00 | 45 | 1005.8 |
| 20260503212558 | 67 | 235 | 13.0 | 25.2 | 0.00 | 0.00 | 0.00 | 43 | 1006.0 |
| 20260503212057 | 68 | 211 | 11.3 | 24.3 | 0.00 | 0.00 | 0.00 | 44 | 1006.0 |
| 20260503211604 | 68 | 207 | 7.8 | 20.0 | 0.00 | 0.00 | 0.00 | 45 | 1006.0 |
| 20260503211057 | 67 | 202 | 9.6 | 20.0 | 0.00 | 0.00 | 0.00 | 45 | 1006.1 |
| 20260503210557 | 67 | 208 | 9.6 | 21.7 | 0.00 | 0.00 | 0.00 | 45 | 1006.1 |
| 20260503210058 | 67 | 228 | 10.4 | 23.5 | 0.00 | 0.00 | 0.00 | 46 | 1006.1 |
| 20260503205558 | 66 | 221 | 12.2 | 23.5 | 0.00 | 0.00 | 0.00 | 45 | 1006.4 |
| 20260503205100 | 66 | 210 | 12.2 | 23.5 | 0.00 | 0.00 | 0.00 | 44 | 1006.5 |
| 20260503204558 | 66 | 205 | 10.4 | 23.5 | 0.00 | 0.00 | 0.00 | 44 | 1006.4 |
| 20260503204100 | 66 | 224 | 13.9 | 23.5 | 0.00 | 0.00 | 0.00 | 43 | 1006.7 |
| 20260503203601 | 66 | 215 | 13.9 | 23.5 | 0.00 | 0.00 | 0.00 | 45 | 1006.8 |
| 20260503203110 | 66 | 235 | 12.2 | 24.3 | 0.00 | 0.00 | 0.00 | 45 | 1007.1 |
| 20260503202558 | 66 | 207 | 11.3 | 27.8 | 0.00 | 0.00 | 0.00 | 44 | 1007.1 |
| 20260503202101 | 65 | 205 | 13.0 | 27.8 | 0.00 | 0.00 | 0.00 | 44 | 1007.0 |
| 20260503201600 | 65 | 205 | 13.9 | 27.8 | 0.00 | 0.00 | 0.00 | 46 | 1007.2 |
| 20260503201100 | 65 | 223 | 13.9 | 26.1 | 0.00 | 0.00 | 0.00 | 47 | 1007.1 |
| 20260503200557 | 65 | 217 | 14.8 | 26.1 | 0.00 | 0.00 | 0.00 | 49 | 1007.3 |
| 20260503200100 | 65 | 216 | 11.3 | 24.3 | 0.00 | 0.00 | 0.00 | 48 | 1007.4 |
| 20260503195558 | 64 | 209 | 11.3 | 20.9 | 0.00 | 0.00 | 0.00 | 51 | 1007.6 |
| 20260503195057 | 64 | 227 | 9.6 | 26.1 | 0.00 | 0.00 | 0.00 | 53 | 1007.9 |
| 20260503194603 | 63 | 232 | 12.2 | 26.1 | 0.00 | 0.00 | 0.00 | 52 | 1008.0 |
| 20260503194057 | 63 | 205 | 13.0 | 26.1 | 0.00 | 0.00 | 0.00 | 53 | 1008.2 |
| 20260503193558 | 63 | 202 | 13.0 | 26.1 | 0.00 | 0.00 | 0.00 | 51 | 1008.4 |
| 20260503193059 | 63 | 210 | 13.9 | 26.1 | 0.00 | 0.00 | 0.00 | 51 | 1008.4 |
| 20260503192557 | 63 | 208 | 12.2 | 23.5 | 0.00 | 0.00 | 0.00 | 50 | 1008.5 |
| 20260503192058 | 63 | 205 | 12.2 | 25.2 | 0.00 | 0.00 | 0.00 | 50 | 1008.5 |
| 20260503191558 | 62 | 218 | 11.3 | 25.2 | 0.00 | 0.00 | 0.00 | 49 | 1008.5 |
| 20260503191100 | 63 | 211 | 16.5 | 25.2 | 0.00 | 0.00 | 0.00 | 48 | 1008.7 |
| 20260503190558 | 63 | 221 | 10.4 | 22.6 | 0.00 | 0.00 | 0.00 | 48 | 1008.4 |
| 20260503190100 | 63 | 229 | 12.2 | 22.6 | 0.00 | 0.00 | 0.00 | 48 | 1008.4 |
| 20260503185557 | 62 | 202 | 9.6 | 21.7 | 0.00 | 0.00 | 0.00 | 48 | 1008.3 |
| 20260503185058 | 62 | 211 | 13.0 | 20.9 | 0.00 | 0.00 | 0.00 | 48 | 1008.2 |
| 20260503184624 | 62 | 216 | 12.2 | 20.9 | 0.00 | 0.00 | 0.00 | 49 | 1008.2 |
| 20260503184057 | 62 | 223 | 9.6 | 22.6 | 0.00 | 0.00 | 0.00 | 50 | 1008.4 |
| 20260503183558 | 61 | 230 | 13.0 | 22.6 | 0.00 | 0.00 | 0.00 | 49 | 1008.6 |
| 20260503183104 | 61 | 194 | 13.0 | 29.5 | 0.00 | 0.00 | 0.00 | 48 | 1008.6 |
| 20260503182558 | 61 | 254 | 11.3 | 29.5 | 0.00 | 0.00 | 0.00 | 49 | 1008.6 |
| 20260503182058 | 61 | 187 | 15.6 | 27.8 | 0.00 | 0.00 | 0.00 | 48 | 1008.8 |
| 20260503181559 | 61 | 198 | 12.2 | 23.5 | 0.00 | 0.00 | 0.00 | 49 | 1008.8 |
| 20260503181058 | 61 | 219 | 8.7 | 23.5 | 0.00 | 0.00 | 0.00 | 50 | 1008.9 |
| 20260503180558 | 61 | 201 | 13.9 | 22.6 | 0.00 | 0.00 | 0.00 | 50 | 1008.9 |
| 20260503180059 | 60 | 198 | 10.4 | 25.2 | 0.00 | 0.00 | 0.00 | 51 | 1009.0 |
| 20260503175558 | 60 | 213 | 13.9 | 25.2 | 0.00 | 0.00 | 0.00 | 51 | 1009.1 |
| 20260503175057 | 60 | 224 | 13.9 | 22.6 | 0.00 | 0.00 | 0.00 | 54 | 1009.2 |
| 20260503174558 | 59 | 193 | 14.8 | 24.3 | 0.00 | 0.00 | 0.00 | 54 | 1009.4 |
| 20260503174057 | 59 | 223 | 15.6 | 27.8 | 0.00 | 0.00 | 0.00 | 55 | 1009.4 |
| 20260503173558 | 59 | 206 | 13.9 | 27.8 | 0.00 | 0.00 | 0.00 | 56 | 1009.5 |
| 20260503173100 | 59 | 203 | 13.0 | 21.7 | 0.00 | 0.00 | 0.00 | 59 | 1009.7 |
| 20260503172558 | 58 | 196 | 9.6 | 26.1 | 0.00 | 0.00 | 0.00 | 61 | 1009.9 |
| 20260503172058 | 58 | 208 | 12.2 | 26.1 | 0.00 | 0.00 | 0.00 | 61 | 1010.0 |
| 20260503171613 | 57 | 223 | 9.6 | 25.2 | 0.00 | 0.00 | 0.00 | 62 | 1010.1 |
| 20260503171101 | 56 | 263 | 13.0 | 25.2 | 0.00 | 0.00 | 0.00 | 63 | 1010.3 |
| 20260503170558 | 55 | 221 | 13.0 | 20.9 | 0.00 | 0.00 | 0.00 | 63 | 1010.5 |
| 20260503170106 | 55 | 213 | 11.3 | 20.9 | 0.00 | 0.00 | 0.00 | 64 | 1010.7 |
| 20260503150559 | 56 | 236 | 12.2 | 26.9 | 0.00 | 0.00 | 0.00 | 56 | 1012.3 |
| 20260503131101 | 52 | 244 | 7.0 | 18.2 | 0.00 | 0.00 | 0.00 | 56 | 1013.3 |
| 20260503130601 | 51 | 238 | 10.4 | 18.2 | 0.00 | 0.00 | 0.00 | 56 | 1013.3 |
| 20260503110559 | 48 | 212 | 6.1 | 12.2 | 0.00 | 0.00 | 0.00 | 58 | 1012.9 |
| 20260503090117 | 47 | 211 | 4.3 | 11.3 | 0.00 | 0.00 | 0.00 | 54 | 1013.6 |
| 20260503081602 | 47 | 199 | 6.1 | 13.0 | 0.00 | 0.00 | 0.00 | 53 | 1013.9 |
| 20260503081059 | 47 | 238 | 6.1 | 12.2 | 0.00 | 0.00 | 0.00 | 54 | 1014.0 |
| 20260503080559 | 47 | 235 | 6.1 | 12.2 | 0.00 | 0.00 | 0.00 | 53 | 1014.0 |
| 20260503080110 | 47 | 202 | 6.1 | 13.9 | 0.00 | 0.00 | 0.00 | 54 | 1014.0 |
| 20260503072559 | 47 | 238 | 5.2 | 12.2 | 0.00 | 0.00 | 0.00 | 53 | 1014.0 |
| 20260503072059 | 47 | 216 | 5.2 | 12.2 | 0.00 | 0.00 | 0.00 | 53 | 1014.0 |
| 20260503071612 | 47 | 217 | 6.1 | 10.4 | 0.00 | 0.00 | 0.00 | 53 | 1014.0 |
| 20260503071058 | 47 | 223 | 5.2 | 10.4 | 0.00 | 0.00 | 0.00 | 53 | 1014.1 |
| 20260503070559 | 47 | 230 | 6.1 | 13.0 | 0.00 | 0.00 | 0.00 | 54 | 1014.0 |
| 20260503060109 | 47 | 218 | 6.1 | 10.4 | 0.00 | 0.00 | 0.00 | 54 | 1014.6 |
| 20260503055058 | 47 | 209 | 6.1 | 11.3 | 0.00 | 0.00 | 0.00 | 54 | 1014.7 |
| 20260503054610 | 47 | 221 | 5.2 | 14.8 | 0.00 | 0.00 | 0.00 | 54 | 1014.7 |
| 20260503054102 | 47 | 205 | 4.3 | 14.8 | 0.00 | 0.00 | 0.00 | 55 | 1014.7 |
| 20260503053559 | 47 | 217 | 5.2 | 11.3 | 0.00 | 0.00 | 0.00 | 55 | 1014.7 |
| 20260503053110 | 46 | 229 | 4.3 | 11.3 | 0.00 | 0.00 | 0.00 | 55 | 1014.8 |
| 20260503052559 | 46 | 209 | 4.3 | 11.3 | 0.00 | 0.00 | 0.00 | 55 | 1014.9 |
| 20260503052102 | 46 | 227 | 5.2 | 10.4 | 0.00 | 0.00 | 0.00 | 55 | 1014.9 |
| 20260503051607 | 46 | 228 | 6.1 | 10.4 | 0.00 | 0.00 | 0.00 | 55 | 1014.9 |
| 20260503051105 | 46 | 210 | 5.2 | 10.4 | 0.00 | 0.00 | 0.00 | 55 | 1015.0 |
| 20260503050558 | 46 | 219 | 5.2 | 8.7 | 0.00 | 0.00 | 0.00 | 55 | 1015.0 |
| 20260503050108 | 46 | 227 | 5.2 | 12.2 | 0.00 | 0.00 | 0.00 | 55 | 1015.1 |